Find Starlink 2373

NORAD ID: 47796 Int'l Des: 2021-018 Owner: SPXS Country: US Constellation: starlink operational
LEOCIRCULARSTARLINK_TYPE

現在のビュー

3D地球を読み込み中...

About Starlink 2373

Starlink 2373 (NORAD 47796) is a starlink constellation satellite (v1.0) launched Mar 11, 2021 by SPXS of US. It operates in LEO, CIRCULAR, STARLINK_TYPE orbit with a mass of 260.00 kg.

Starlink 2373について

説明を読み込み中...

次回通過

Passes for default location (London). Set your location on the main map for personalized predictions.

高度履歴

Loading altitude history...

軌道要素

1 47796U 21018K 26167.21165044 .00046895 00000-0 13921-2 0 9990
2 47796 53.1559 140.3916 0002903 57.5228 302.6055 15.34360697291861
Epoch: Jun 16, 2026 • Age: 12 hours

現在のステータス

高度 466.4 km
速度 7.63 km/s
衛星直下点 -15.39°S, 41.39°W
打ち上げ日 Mar 11, 2021
運用期間 5.2 years
タイプ internet

技術仕様

分類 Payload
質量 260.00 kg
乾燥質量 248.00 kg
総質量 260.00 kg
長さ 0.20 m
直径 2.80 m
スパン 9.00 m
形状 Box + pan
製造者 SPXS
バスタイプ Starlink
フェーズステータス In Orbit
所有者/国 SPXS/US

Most Searched